Temperature
8 8 8 8 8 8 8 8 8 7 7 7 7 7 7 7 7 6 6 6 6 6 5 5 5 5 5 5 5 5 4 4 4 4 4 4 4 4 4 4 4 4 4
8 8 8 8 8 8 8 7 7 7 7 7 7 6 6 6 6 6 6 5 5 5 5 5 5 5 5 5 4 4 4 4 3 3 4 4 4 4 3 3 4 4 4
8 8 8 8 7 7 7 7 7 7 7 6 6 6 6 6 5 5 5 5 5 4 4 4 4 4 4 4 4 4 3 3 3 3 3 3 3 3 3 3 3 3 3
7 7 7 7 7 7 7 7 6 6 6 6 6 6 5 5 5 5 5 4 4 4 4 4 4 4 4 3 3 3 3 3 2 2 2 3 3 2 2 3 3 3 3
7 7 7 7 6 6 6 6 6 6 6 6 5 5 5 5 5 4 4 4 4 4 4 3 3 3 3 3 3 3 2 2 2 2 2 2 2 2 2 2 2 2 2
7 6 6 6 6 6 6 6 5 5 5 5 5 5 5 4 4 4 4 4 4 3 3 3 3 3 3 3 2 2 2 2 2 2 2 2 2 2 1 1 1 1 1
6 6 6 6 5 5 5 5 5 5 5 4 4 4 4 4 4 4 3 3 3 3 3 3 3 2 2 2 2 2 2 2 1 1 1 1 1 1 1 1 0 0 0
5 5 5 5 5 5 5 4 4 4 4 4 4 4 4 3 3 3 3 3 3 3 2 2 2 2 2 2 1 1 1 1 1 1 1 1 1 0 0 -0 -0 -0 -0
5 5 4 4 4 4 4 4 4 3 3 3 3 3 3 3 3 3 2 2 2 2 2 2 1 1 1 1 1 1 1 1 1 1 1 1 0 0 -0 -0 -1 -1 -1
4 4 4 4 4 3 3 3 3 3 3 3 3 3 3 3 2 2 2 2 2 1 1 1 1 1 1 1 0 0 1 1 1 1 0 0 0 0 -0 -1 -1 -1 -2
4 3 3 3 3 3 3 3 3 2 2 2 2 2 2 2 2 2 1 1 1 1 1 1 1 0 0 0 -0 -0 0 0 0 0 0 0 -0 -0 -1 -1 -1 -2 -2
3 3 3 3 3 2 2 2 2 2 2 2 2 2 2 2 1 1 1 1 1 0 1 0 0 -0 -0 -0 -0 -0 -0 -0 -0 -0 -1 -1 -1 -1 -1 -1 -2 -2 -2
2 2 2 2 2 2 2 2 2 1 1 1 1 1 1 1 1 1 0 0 0 -0 -0 -0 -0 -0 -1 -1 -0 -1 -1 -1 -1 -1 -1 -1 -1 -1 -2 -2 -2 -3 -3
2 2 2 2 2 2 1 1 1 1 1 0 0 0 0 0 0 0 -0 -0 -0 -0 -1 -1 -1 -1 -1 -1 -1 -1 -1 -1 -1 -1 -1 -1 -2 -2 -2 -3 -3 -3 -3
1 1 1 1 1 1 1 0 0 0 -0 -0 -0 -0 -0 -0 -0 -1 -1 -1 -1 -1 -1 -1 -1 -1 -1 -1 -1 -1 -1 -1 -2 -2 -2 -2 -2 -2 -3 -3 -3 -4 -4
1 1 1 1 0 0 0 0 -0 -0 -0 -1 -1 -1 -1 -1 -1 -1 -1 -1 -1 -2 -2 -2 -2 -2 -2 -2 -2 -2 -2 -2 -2 -2 -2 -3 -3 -3 -3 -4 -4 -4 -4
0 0 0 0 -0 -0 -0 -1 -1 -1 -1 -1 -1 -1 -1 -1 -1 -1 -2 -2 -2 -2 -2 -2 -2 -2 -2 -2 -2 -2 -2 -2 -2 -3 -3 -3 -4 -4 -4 -4 -4 -4 -4
-0 -0 -0 -1 -1 -1 -1 -1 -1 -1 -1 -1 -1 -1 -1 -2 -2 -2 -2 -2 -2 -2 -2 -2 -2 -2 -2 -2 -2 -3 -3 -3 -3 -3 -3 -4 -4 -4 -4 -4 -4 -4 -5
-1 -1 -1 -1 -1 -1 -2 -2 -2 -2 -2 -2 -2 -1 -2 -2 -2 -2 -2 -3 -3 -2 -2 -3 -3 -3 -3 -3 -3 -3 -3 -3 -3 -4 -4 -4 -4 -4 -5 -5 -5 -5 -5
-1 -1 -2 -2 -2 -2 -2 -2 -2 -2 -3 -3 -2 -2 -2 -3 -3 -3 -3 -3 -3 -3 -3 -3 -3 -3 -3 -3 -3 -3 -3 -3 -4 -4 -4 -4 -5 -5 -5 -5 -5 -5 -5
-2 -2 -2 -2 -2 -2 -3 -3 -3 -3 -3 -3 -3 -3 -3 -3 -3 -3 -3 -3 -3 -3 -3 -3 -3 -3 -3 -4 -4 -4 -4 -4 -4 -4 -5 -5 -5 -5 -5 -5 -5 -6 -6
-2 -2 -2 -2 -3 -3 -3 -3 -3 -3 -3 -3 -3 -3 -3 -4 -4 -3 -3 -3 -3 -4 -4 -4 -4 -4 -4 -4 -4 -4 -4 -4 -5 -5 -5 -5 -5 -5 -5 -5 -6 -6 -6
-2 -2 -3 -3 -3 -3 -3 -3 -4 -4 -4 -4 -4 -4 -4 -4 -4 -4 -4 -4 -4 -4 -4 -4 -4 -4 -4 -5 -5 -5 -5 -5 -5 -5 -5 -5 -5 -5 -6 -6 -6 -6 -6
-3 -3 -3 -3 -3 -4 -4 -4 -4 -4 -4 -4 -5 -4 -5 -5 -4 -4 -4 -4 -4 -4 -4 -5 -5 -5 -5 -5 -5 -5 -5 -5 -5 -5 -5 -6 -6 -6 -6 -6 -6 -6 -6
-3 -3 -4 -4 -4 -4 -4 -4 -5 -5 -5 -5 -5 -5 -5 -5 -5 -5 -5 -5 -5 -5 -5 -5 -5 -5 -5 -5 -5 -5 -5 -5 -5 -5 -6 -6 -6 -6 -6 -6 -6 -6 -7
-4 -4 -4 -4 -4 -5 -5 -5 -5 -5 -5 -5 -5 -5 -5 -5 -5 -5 -5 -5 -5 -5 -5 -5 -5 -5 -5 -5 -5 -5 -5 -5 -6 -6 -6 -6 -6 -6 -6 -6 -6 -7 -7
Wind_Speed
2 2 2 2 2 3 3 4 3 3 3 3 3 3 4 4 4 3 4 4 4 4 4 4 4 3 3 3 2 3 3 3 6 6 4 3 3 4 6 7 9 8 8
2 1 2 2 2 3 3 4 3 3 3 4 4 4 4 4 4 4 5 5 5 5 5 4 4 3 4 4 3 3 4 4 5 7 6 4 5 4 4 5 6 8 8
2 2 2 2 3 3 4 4 3 4 4 4 4 5 5 5 5 5 5 5 5 5 5 5 5 4 5 4 4 4 4 5 4 6 6 5 4 4 4 5 6 5 8
2 2 3 3 3 4 4 4 4 4 4 5 5 5 5 5 5 5 5 5 6 6 5 6 6 6 6 5 5 5 5 5 4 5 6 5 5 4 3 4 6 5 6
2 2 3 3 3 3 3 3 4 4 4 5 5 5 5 5 5 5 5 6 6 6 6 6 6 7 8 7 6 5 5 5 5 5 6 5 5 4 4 4 5 6 5
2 3 3 3 3 3 3 4 4 4 4 4 5 5 6 5 7 9 7 6 6 6 7 6 7 7 9 11 11 10 8 7 6 6 6 7 7 6 5 4 4 5 5
2 3 3 3 3 4 4 4 4 5 5 5 5 6 6 7 9 10 10 7 6 7 7 7 7 7 8 7 9 11 11 13 12 8 8 9 8 6 5 5 5 6 7
3 3 3 3 3 4 4 5 5 5 5 5 6 6 6 7 10 10 11 8 7 7 7 7 8 8 7 7 6 7 8 9 10 9 8 9 8 6 5 5 5 5 5
3 3 3 2 3 4 5 5 5 4 5 5 5 6 7 7 9 10 9 5 6 8 8 8 8 8 10 10 7 8 8 8 9 11 12 11 12 10 6 3 3 4 6
3 3 3 3 4 5 5 5 4 4 5 6 6 6 7 7 9 10 10 5 6 7 7 7 10 11 11 11 7 7 9 9 6 6 6 7 7 7 8 5 5 5 5
2 2 3 4 5 5 5 4 5 5 5 6 7 7 7 8 9 10 10 6 6 7 6 6 7 11 13 12 11 8 12 9 6 6 5 5 4 4 4 4 4 5 6
2 3 4 5 4 4 4 5 5 5 6 6 7 7 6 6 7 9 11 12 10 7 7 6 7 11 12 13 11 12 13 10 5 5 5 5 5 4 4 4 5 5 6
3 4 5 5 4 4 5 5 5 5 5 6 6 6 6 5 6 11 12 13 13 8 7 10 11 12 12 10 12 13 9 6 5 6 6 6 5 5 4 3 3 4 4
4 5 5 4 5 4 4 4 4 5 5 6 6 6 6 6 5 5 5 7 9 9 8 9 12 13 10 10 9 8 6 6 6 6 6 5 3 3 4 3 3 3 4
4 5 4 4 4 4 5 5 6 6 6 7 6 6 7 8 8 9 7 6 5 7 6 5 5 5 5 5 5 5 5 5 6 5 5 4 4 4 4 3 3 3 4
4 4 4 4 4 4 5 6 8 10 12 13 13 11 9 12 14 14 14 14 13 12 8 6 7 7 7 7 6 6 5 6 6 5 5 5 5 5 4 3 3 4 5
5 5 4 4 4 4 5 6 7 8 10 13 14 15 14 15 16 16 16 15 14 12 8 7 8 8 7 7 6 6 7 6 5 5 6 5 5 4 4 4 4 4 5
5 6 6 5 5 5 5 6 6 7 8 7 9 13 14 15 15 15 15 11 9 8 7 8 8 8 7 7 7 6 6 5 5 5 5 5 5 5 5 5 4 5 5
5 5 5 5 5 5 6 6 6 7 8 8 8 8 12 12 13 14 11 6 7 8 7 7 7 7 7 7 6 6 6 6 6 5 5 5 5 5 5 5 4 6 5
5 8 7 5 5 6 6 6 7 7 8 8 8 8 6 6 6 7 6 6 7 8 7 7 7 7 6 6 6 5 5 6 6 6 5 5 5 5 5 5 5 5 5
5 6 8 6 6 6 6 7 7 7 8 8 8 9 11 7 7 8 7 7 7 7 7 7 7 6 6 5 5 6 7 6 6 6 5 5 5 4 4 4 4 4 4
5 5 5 6 6 6 7 7 7 8 8 10 9 9 14 8 7 8 7 7 7 6 6 6 6 6 6 5 5 6 6 6 6 5 5 5 4 4 4 4 4 4 4
6 6 7 7 6 9 10 7 7 8 9 9 8 8 8 7 7 7 8 7 6 6 6 6 6 6 5 5 5 6 6 7 6 6 5 5 5 4 4 5 5 5 5
6 7 7 7 7 7 8 8 8 8 8 8 8 8 8 7 7 8 7 6 6 6 6 5 6 7 7 5 5 5 6 6 6 6 6 6 5 5 4 4 5 5 5
6 7 7 7 7 7 8 8 8 8 8 8 8 8 8 7 7 7 6 6 6 6 6 6 5 6 7 7 7 6 8 9 8 6 6 5 6 5 5 5 4 4 4
6 7 7 7 7 8 8 8 8 8 8 8 8 7 7 7 7 7 6 6 6 6 6 5 6 7 7 6 7 8 9 9 9 8 6 5 5 5 5 4 5 4 4
Wind_Direction
179 190 201 212 214 216 222 226 225 229 230 232 234 235 236 234 228 224 232 240 247 255 249 240 248 252 258 261 254 253 255 252 268 285 289 293 293 290 298 292 292 289 289
179 190 216 229 229 229 235 236 229 230 234 235 236 236 239 238 233 231 239 239 242 249 252 247 249 251 252 253 251 251 253 251 257 278 289 290 281 276 284 292 295 294 289
178 197 229 238 237 239 240 241 238 234 237 239 236 235 238 238 237 238 239 242 242 244 246 247 248 245 251 249 248 249 252 259 251 266 280 287 287 290 293 296 294 288 289
188 213 233 241 242 246 247 244 241 238 239 239 238 237 236 237 237 240 240 244 247 248 245 245 246 242 245 246 249 248 251 256 258 263 272 282 285 290 288 290 299 294 292
214 234 240 245 251 253 256 257 253 247 247 246 245 245 241 238 236 234 239 247 251 253 253 249 247 244 244 247 252 247 247 253 257 261 268 278 279 286 281 280 287 298 292
232 245 247 251 259 258 259 263 264 258 255 254 252 248 245 246 243 239 238 247 250 252 258 258 255 249 251 255 256 255 248 249 251 254 263 265 270 270 273 277 285 299 294
242 252 253 253 260 264 265 265 265 263 259 255 254 252 250 247 244 245 241 243 248 250 252 256 262 256 255 253 259 261 260 257 253 250 256 259 265 264 267 271 267 268 271
249 258 256 256 263 266 265 260 258 258 259 258 257 254 254 254 247 247 246 242 246 249 250 248 252 257 251 248 253 258 259 258 256 253 250 256 258 257 249 256 261 274 276
253 259 265 265 269 268 265 265 263 262 263 261 260 257 257 259 252 248 244 243 248 254 255 251 251 256 257 254 253 258 265 266 264 256 254 259 262 264 262 264 263 274 281
248 257 266 260 259 262 265 270 270 265 263 264 265 260 258 260 257 250 243 243 253 260 259 254 252 253 259 258 252 253 262 266 266 271 267 266 266 264 262 247 237 252 268
245 258 260 254 253 257 263 267 269 269 270 269 269 266 260 259 260 256 246 242 250 260 263 262 257 258 260 262 260 253 259 266 260 256 260 261 260 254 253 245 237 237 248
252 259 258 254 255 258 259 266 267 267 268 270 270 272 266 262 258 259 253 250 254 256 261 262 260 263 263 264 264 261 264 268 260 255 256 256 253 251 248 244 241 240 241
257 260 261 260 256 252 252 259 265 265 264 266 267 272 276 269 263 262 262 260 259 258 261 263 267 270 269 265 261 261 261 255 247 249 251 253 247 239 237 245 250 247 254
256 262 263 261 263 261 255 253 255 260 265 268 269 272 276 275 269 263 259 265 264 265 266 267 270 271 264 257 261 258 245 240 244 248 253 253 246 237 237 240 252 255 265
260 263 267 264 262 265 263 255 256 252 251 260 264 266 274 278 274 272 275 268 260 262 273 272 267 267 260 254 252 250 243 240 248 246 248 252 248 244 245 232 240 246 255
263 267 267 269 268 268 275 281 265 258 266 264 262 264 268 270 281 285 283 278 275 272 273 264 260 256 255 253 251 251 245 242 240 239 240 241 243 243 245 237 237 247 256
257 264 267 267 266 271 276 278 288 286 271 268 268 269 267 272 277 280 281 279 274 270 262 255 255 254 253 251 248 247 248 244 236 233 236 237 236 237 240 241 240 249 257
258 262 263 261 262 266 270 272 274 283 292 289 278 273 273 272 275 277 279 280 272 260 248 252 253 252 252 250 247 247 248 245 238 234 234 231 227 232 237 240 239 245 255
261 263 262 263 263 263 265 269 271 273 277 282 287 284 277 276 276 275 274 260 260 260 255 254 253 251 251 248 245 243 241 242 239 232 232 230 227 228 237 239 240 243 251
257 262 266 268 269 270 269 269 270 271 274 277 279 280 281 279 277 276 264 252 254 260 260 260 258 253 249 246 243 242 243 243 237 232 231 229 225 226 236 237 237 241 246
255 262 265 268 264 266 268 269 270 271 273 275 274 275 280 277 272 272 268 261 257 259 262 262 260 256 250 246 242 239 241 244 236 229 227 225 221 226 232 233 235 239 242
250 257 258 260 265 267 270 267 270 272 274 276 279 281 284 278 270 269 269 267 261 259 258 259 260 256 247 242 239 240 242 243 235 225 222 221 220 224 225 227 229 233 234
245 253 259 261 261 271 276 270 268 270 272 274 277 279 279 272 269 268 268 269 267 266 262 258 259 259 252 240 233 233 239 241 231 217 217 220 221 220 221 225 226 229 232
245 252 258 263 264 264 268 271 271 270 272 274 275 276 275 273 273 272 272 272 270 268 263 259 257 255 252 247 239 233 234 233 222 218 216 220 221 218 219 225 227 227 229
244 250 256 260 263 266 269 271 271 271 272 273 275 275 276 274 274 275 275 272 270 270 267 263 261 257 249 244 243 239 235 230 225 221 217 218 217 215 218 222 225 227 224
248 253 258 260 261 262 266 270 271 271 271 273 273 273 272 271 273 276 276 274 273 272 270 269 263 257 250 246 243 240 238 234 229 228 223 218 212 215 213 217 217 219 213
Height
1493 1493 1493 1494 1495 1495 1495 1495 1495 1495 1495 1494 1493 1493 1493 1493 1492 1492 1492 1491 1491 1490 1490 1489 1488 1488 1487 1487 1486 1485 1484 1483 1480 1478 1478 1477 1475 1474 1472 1470 1468 1466 1465
1490 1490 1491 1491 1491 1492 1492 1492 1492 1491 1491 1490 1490 1489 1489 1488 1488 1488 1488 1487 1487 1486 1486 1485 1484 1484 1483 1482 1481 1480 1479 1478 1477 1474 1472 1471 1470 1469 1467 1465 1464 1462 1460
1488 1488 1488 1488 1488 1488 1488 1488 1488 1487 1487 1486 1486 1485 1485 1484 1484 1484 1483 1483 1482 1482 1481 1480 1479 1479 1478 1477 1476 1475 1474 1473 1472 1470 1467 1467 1465 1464 1462 1460 1459 1457 1455
1484 1484 1484 1484 1484 1484 1484 1484 1483 1483 1482 1482 1481 1481 1480 1480 1480 1479 1479 1478 1477 1476 1476 1475 1475 1474 1473 1472 1471 1470 1469 1468 1467 1465 1463 1461 1460 1459 1457 1455 1453 1452 1450
1481 1481 1481 1481 1480 1480 1480 1479 1479 1478 1478 1477 1477 1476 1476 1475 1475 1474 1474 1473 1472 1471 1470 1470 1469 1469 1468 1467 1466 1465 1464 1462 1461 1460 1458 1456 1455 1454 1452 1450 1448 1446 1444
1478 1478 1477 1477 1476 1476 1476 1475 1474 1473 1473 1472 1472 1471 1471 1470 1470 1469 1469 1467 1466 1465 1465 1464 1463 1463 1462 1461 1460 1459 1458 1457 1456 1455 1453 1451 1450 1449 1447 1445 1443 1440 1438
1474 1474 1473 1473 1472 1472 1471 1470 1470 1469 1468 1467 1467 1466 1465 1465 1465 1464 1463 1462 1461 1460 1459 1458 1457 1457 1456 1455 1454 1453 1452 1451 1451 1450 1447 1446 1445 1443 1442 1440 1438 1436 1433
1471 1470 1469 1469 1468 1468 1467 1466 1465 1464 1463 1462 1462 1461 1460 1460 1460 1459 1458 1457 1455 1454 1454 1453 1452 1451 1450 1449 1448 1446 1445 1445 1444 1443 1442 1440 1439 1438 1436 1435 1433 1430 1428
1467 1466 1466 1465 1464 1463 1463 1462 1461 1460 1459 1458 1457 1456 1455 1454 1454 1453 1453 1451 1449 1448 1448 1447 1446 1445 1444 1443 1442 1440 1439 1438 1437 1436 1435 1434 1432 1432 1431 1429 1427 1425 1422
1463 1462 1462 1461 1460 1459 1458 1457 1456 1455 1454 1453 1452 1451 1449 1449 1448 1448 1447 1445 1443 1442 1441 1440 1439 1439 1438 1437 1436 1434 1432 1431 1430 1429 1428 1427 1426 1425 1424 1423 1422 1420 1417
1459 1459 1458 1457 1456 1455 1454 1453 1452 1451 1449 1448 1447 1445 1444 1443 1442 1442 1441 1439 1438 1436 1435 1434 1433 1433 1432 1431 1430 1428 1426 1425 1424 1422 1421 1420 1419 1418 1417 1417 1416 1415 1413
1455 1454 1454 1453 1452 1451 1449 1448 1447 1446 1445 1443 1442 1440 1439 1438 1437 1436 1435 1434 1432 1431 1429 1428 1427 1426 1425 1424 1423 1422 1421 1419 1417 1416 1414 1413 1412 1411 1411 1410 1409 1408 1407
1451 1450 1450 1449 1447 1446 1445 1443 1442 1441 1439 1438 1436 1435 1433 1432 1431 1430 1428 1427 1426 1425 1423 1422 1421 1420 1419 1417 1416 1415 1414 1412 1411 1409 1408 1407 1406 1405 1404 1404 1403 1402 1401
1446 1446 1445 1444 1443 1441 1440 1439 1437 1436 1434 1433 1431 1429 1428 1426 1425 1424 1422 1421 1420 1418 1417 1416 1415 1413 1412 1410 1409 1408 1407 1406 1405 1403 1402 1401 1400 1399 1398 1398 1397 1396 1395
1442 1441 1440 1439 1438 1436 1435 1434 1432 1431 1430 1428 1426 1424 1422 1420 1419 1418 1416 1414 1413 1412 1410 1409 1407 1406 1405 1404 1402 1401 1401 1400 1398 1397 1396 1395 1394 1393 1392 1392 1391 1390 1389
1437 1436 1435 1434 1433 1431 1429 1428 1426 1425 1424 1422 1420 1418 1416 1414 1412 1411 1410 1408 1407 1406 1404 1402 1401 1399 1398 1397 1396 1395 1394 1393 1392 1391 1390 1389 1388 1387 1387 1386 1386 1385 1384
1433 1432 1430 1429 1428 1426 1424 1422 1420 1418 1417 1416 1414 1412 1410 1408 1406 1404 1403 1401 1400 1399 1397 1395 1394 1393 1392 1391 1389 1388 1387 1387 1386 1385 1384 1383 1383 1382 1381 1381 1380 1379 1379
1428 1427 1425 1424 1422 1420 1418 1416 1414 1412 1410 1408 1407 1405 1403 1401 1399 1398 1396 1395 1393 1392 1390 1389 1388 1386 1385 1384 1383 1382 1381 1380 1380 1379 1378 1378 1377 1377 1376 1375 1375 1374 1374
1423 1421 1420 1418 1416 1414 1412 1410 1408 1406 1404 1401 1399 1398 1397 1395 1393 1391 1390 1388 1386 1385 1384 1382 1381 1380 1379 1377 1376 1375 1375 1374 1373 1373 1372 1372 1371 1371 1371 1370 1370 1369 1369
1417 1416 1414 1412 1410 1408 1406 1404 1402 1400 1397 1395 1393 1391 1389 1388 1385 1384 1383 1381 1380 1378 1377 1376 1374 1373 1372 1371 1370 1369 1368 1368 1367 1367 1366 1366 1366 1366 1366 1366 1365 1365 1364
1411 1409 1408 1406 1404 1402 1400 1398 1395 1393 1391 1388 1386 1385 1383 1381 1379 1377 1375 1374 1373 1371 1370 1369 1367 1366 1365 1364 1363 1363 1362 1361 1361 1361 1361 1361 1361 1361 1361 1361 1361 1361 1360
1405 1403 1402 1400 1398 1396 1394 1391 1389 1387 1384 1382 1379 1378 1376 1374 1372 1370 1369 1367 1366 1365 1364 1362 1361 1360 1359 1358 1357 1357 1356 1356 1355 1355 1355 1355 1356 1356 1356 1356 1356 1356 1356
1398 1397 1395 1393 1391 1389 1387 1385 1383 1380 1378 1375 1373 1371 1369 1367 1366 1364 1362 1361 1359 1358 1357 1356 1354 1353 1353 1352 1351 1351 1350 1350 1350 1350 1350 1350 1351 1351 1352 1352 1352 1352 1352
1392 1390 1388 1386 1384 1382 1380 1378 1376 1374 1371 1369 1367 1365 1363 1361 1359 1357 1356 1354 1353 1351 1350 1349 1348 1347 1347 1346 1345 1345 1345 1345 1345 1345 1345 1346 1346 1347 1347 1347 1348 1348 1348
1385 1383 1381 1379 1378 1376 1374 1371 1369 1367 1365 1363 1361 1359 1357 1355 1353 1351 1349 1348 1347 1345 1344 1343 1342 1341 1341 1340 1340 1339 1339 1339 1340 1340 1340 1341 1341 1342 1343 1343 1343 1344 1344
1378 1376 1374 1373 1371 1369 1367 1365 1362 1360 1358 1356 1354 1352 1350 1348 1347 1345 1343 1342 1341 1339 1338 1338 1337 1336 1335 1335 1334 1334 1334 1334 1335 1335 1336 1336 1337 1337 1338 1339 1339 1340 1340